Regional Weather Roundup
Issued by NWS

Home | Current Version | Previous Version | Graphics & Text | Print | Product List | Glossary On
Versions: 1 2 3 4 5 6 7 8 9 10 11 12 13 14 15 16 17 18 19 20 21 22 23 24 25 26 27 28 29 30 31 32 33 34 35 36 37 38 39 40 41 42 43 44 45 46 47 48 49 50
000
ASUS43 KMPX 040001
RWRMN
WEATHER ROUNDUP FOR MINNESOTA
NATIONAL WEATHER SERVICE TWIN CITIES/CHANHASSEN MN
700 PM CDT SUN MAY 03 2015


NOTE: "FAIR" INDICATES FEW OR NO CLOUDS BELOW 12,000 FEET WITH NO
SIGNIFICANT WEATHER AND/OR OBSTRUCTIONS TO VISIBILITY. N/A MEANS
CURRENT SKY AND/OR WEATHER CONDITIONS ARE NOT AVAILABLE.

MNZ060>063-068>070-040100-
   Twin Cities Metro

CITY           SKY/WX    TMP DP  RH WIND       PRES   REMARKS
TWIN CITIES    CLOUDY    65  52  62 N14       29.81F
6HR MIN TEMP:  62; 6HR MAX TEMP:  83; 6HR PCP:  0.01;

ST PAUL        CLOUDY    61  55  81 E6        29.82F
CRYSTAL        CLOUDY    68  44  42 NE9       29.81F
LAKEVILLE      CLOUDY    63  52  67 N16G22    29.79F
EDEN PRAIRIE   TSTM      63  51  65 N12       29.81S
6HR MIN TEMP:  63; 6HR MAX TEMP:  83; 6HR PCP:  0.44;

SOUTH ST PAUL  TSTM      62  51  68 N10G16    29.80F
LAKE ELMO      CLOUDY    59  54  82 CALM      29.84F
$$
MNZ001>005-007-008-013>017-022>024-027-028-040100-
   Northwest Minnesota

CITY           SKY/WX    TMP DP  RH WIND       PRES   REMARKS
BEMIDJI        SUNNY     63  25  23 NW14      29.90S
HALLOCK        MOSUNNY   63  27  25 N13       29.92R
ROSEAU         MOSUNNY   61  34  36 NW20      29.92R
WARROAD        MOSUNNY   61  36  39 NW18G25   29.91R
THIEF RVR FALL MOSUNNY   64  25  22 W17       29.92S
CROOKSTON      SUNNY     66  27  22 NW16G25   29.93R
MOORHEAD       MOSUNNY   68  19  15 NW17      29.93R
PARK RAPIDS    SUNNY     67  21  17 NW12      29.90S
MAHNOMEN       FAIR      66  23  19 NW13      29.92R
$$
MNZ006-009>011-018-025>026-040100-
   North Central Minnesota

CITY           SKY/WX    TMP DP  RH WIND       PRES   REMARKS
BAUDETTE       MOSUNNY   59  34  39 NW18      29.89R
FLAG ISLAND    MOSUNNY   55  37  50 NW25G33   29.90R
INTL FALLS     SUNNY     63  27  25 NW14      29.86R
6HR MIN TEMP:  63; 6HR MAX TEMP:  66;

WASKISH        SUNNY     63  37  39 W10G18    29.89R
BIG FORK       MOSUNNY   64  25  22 NW7       29.88S
LONGVILLE      MOSUNNY   64  27  24 W9        29.90R
GRAND RAPIDS   MOSUNNY   63  28  27 NW13      29.88S
CRANE LAKE     SUNNY     63  25  23 N12G17    29.86S
ORR            SUNNY     64  25  22 NW10      29.83R
COOK           MOSUNNY   64  27  24 W10G18    29.86R
WALKER         FAIR      65  23  20 NW7       29.89S
$$
MNZ012-019>021-037-040100-
   Northeast Minnesota

CITY           SKY/WX    TMP DP  RH WIND       PRES   REMARKS
DULUTH         CLOUDY    65  40  39 W6        29.84F
6HR MIN TEMP:  60; 6HR MAX TEMP:  77; 6HR PCP:  0.01;

ELY            PTSUNNY   64  21  19 W9        29.83S
HIBBING        PTSUNNY   65  27  23 NW9       29.86S
EVELETH        PTSUNNY   63  28  27 W8        29.86F
DULUTH HARBOR  CLOUDY    59  54  82 S6        29.84F
TWO HARBORS    CLOUDY    70  45  40 CALM      29.81F
SILVER BAY     CLOUDY    64  45  48 CALM      29.80F
GRAND MARAIS     N/A     55  38  52 W5        29.80S
G MARAIS ARPRT CLOUDY    59  34  38 NW6       29.84F
$$
MNZ029>031-032-039>041-046>048-054>057-064-040100-
   West Central Minnesota

CITY           SKY/WX    TMP DP  RH WIND       PRES   REMARKS
FERGUS FALLS   MOSUNNY   64  30  27 N6        29.94R
WHEATON        PTSUNNY   63  30  29 N13G21    29.95F
MORRIS         MOSUNNY   66  25  20 N16G24    29.92S
ALEXANDRIA     PTSUNNY   64  29  26 NW12      29.93R
ELBOW LAKE     FAIR      63  30  28 N13G21    29.93F
WADENA         MOSUNNY   63  30  29 NW15      29.91S
GLENWOOD       MOSUNNY   64  36  34 NW16      29.91S
APPLETON       MOSUNNY   70  27  19 N18G24    29.90S
BENSON         MOSUNNY   70  30  23 N17G23    29.89S
ORTONVILLE     MOSUNNY   66  25  20 N21       29.92F
MADISON        SUNNY     68  28  22 N23G29    29.89F
WILLMAR        FAIR      70  39  32 N17       29.88F
$$
MNZ033>034-036-042>043-049>051-058-059-040100-
   Central Minnesota

CITY           SKY/WX    TMP DP  RH WIND       PRES   REMARKS
ST CLOUD       MOSUNNY   68  40  35 N6        29.84F
6HR MIN TEMP:  64; 6HR MAX TEMP:  79; 6HR PCP: TRACE;

SAUK CENTRE    FAIR      67  38  33 NW14      29.88F
PAYNESVILLE    PTSUNNY   64  40  41 NW7       29.87F
AITKIN         MOSUNNY   66  28  24 NW9       29.85S
PINE RIVER     SUNNY     66  32  28 NW12G17   29.92S
BRAINERD       SUNNY     67  35  30 N10       29.87S
STAPLES        MOSUNNY   64  28  25 NW12      29.89F
LONG PRAIRIE   PTSUNNY   64  34  32 NW14G20   29.90S
LITTLE FALLS   MOSUNNY   68  32  26 NW8       29.87S
LITCHFIELD     CLOUDY    68  41  37 N7        29.86F
BUFFALO        PTSUNNY   65  44  44 N8        29.86R
MAPLE LAKE     PTSUNNY   67  47  49 N8        29.86S
$$
MNZ037-044-045-052-053-040100-
   East Central Minnesota

CITY           SKY/WX    TMP DP  RH WIND       PRES   REMARKS
PRINCETON      PTSUNNY   68  43  40 N10G16    29.85S
MORA           PTSUNNY   64  41  42 CALM      29.85F
CAMBRIDGE      PTSUNNY   70  46  43 N8G20     29.82F
RUSH CITY      CLOUDY    65  42  41 N14       29.84S
MOOSE LAKE     PTSUNNY   57  52  82 CALM      29.83F
HINCKLEY       FAIR      66  43  42 N8        29.85F
CLOQUET        CLOUDY    64  37  36 CALM      29.84F
MCGREGOR       MOSUNNY   66  36  32 NW9       29.86S
$$
MNZ071>073-080-081-089-090-097-098-040100-
   Southwest Minnesota

CITY           SKY/WX    TMP DP  RH WIND       PRES   REMARKS
MONTEVIDEO     MOSUNNY   72  37  28 NE17G24   29.87F
GRANITE FALLS  MOSUNNY   70  36  29 N18G28    29.86S
CANBY          SUNNY     69  34  27 N15G24    29.89S
MARSHALL       MOSUNNY   70  36  28 N18G29    29.84F
REDWOOD FALLS  CLOUDY    69  39  33 N10G21    29.84F
OLIVIA         CLOUDY    68  41  37 N15       29.84F
PIPESTONE      PTSUNNY   66  37  34 NE16G25   29.84F
WINDOM         PTSUNNY   72  32  23 VRB29G36  29.83S
WORTHINGTON    MOSUNNY   70  36  28 N23G30    29.83S
JACKSON        PTSUNNY   73  36  25 N31G37    29.83R
TRACY          PTSUNNY   69  38  33 N17G24    29.86S
SLAYTON        MOSUNNY   65  36  33 N20G26    29.85S
$$
MNZ065>067-074>077-082>085-091>093-040100-
   South Central Minnesota

CITY           SKY/WX    TMP DP  RH WIND       PRES   REMARKS
MANKATO          N/A    N/A N/A N/A MISG        N/A
NEW ULM        PTSUNNY   68  39  34 N12G20    29.82R
ST JAMES       PTSUNNY   75  34  22 N25G33    29.84R
FAIRMONT       CLOUDY    72  43  35 N25G33    29.80R
GLENCOE        PTSUNNY   67  45  44 N20G26    29.83R
FARIBAULT      CLOUDY    66  57  72 N14G21    29.79F
OWATONNA       CLOUDY    66  61  82 N20G25    29.76F
WASECA         CLOUDY    64  55  72 N25G35    29.76F
ALBERT LEA     TSTM      63  61  94 W16G35    29.77R VSB 1
$$
MNZ078>079-086>088-094>096-040100-
   Southeast Minnesota

CITY           SKY/WX    TMP DP  RH WIND       PRES   REMARKS
ROCHESTER      PTSUNNY   78  51  38 SE12      29.71F
6HR MIN TEMP:  78; 6HR MAX TEMP:  83;

RED WING       CLOUDY    57  57 100 N18G24    29.81S
STANTON        CLOUDY    64  54  70 N16G24    29.79S
DODGE CENTER   TSTM      63  57  82 N24       29.76R
WINONA         PTSUNNY   79  48  34 CALM      29.72F
AUSTIN         PTSUNNY   75  57  53 S7        29.73S
PRESTON        MOSUNNY   78  52  40 S10       29.74F
$$
ABBREVIATIONS USED IN REMARKS
   TC - TEMPERATURES IN CELSIUS
  WCI - WIND CHILL INDEX
   HX - HEAT INDEX
  VSB - VISIBILITY
$$



USA.gov is the U.S. government's official web portal to all federal, state and local government web resources and services.